TimeMST,TemperatureF,Dew PointF,Humidity,Sea Level PressureIn,VisibilityMPH,Wind Direction,Wind SpeedMPH,Gust SpeedMPH,PrecipitationIn,Events,Conditions,WindDirDegrees,DateUTC
12:15 AM,33.8,33.8,100,30.12,5.0,NW,5.8,-,N/A,,Overcast,320,2012-12-05 07:15:00
12:35 AM,33.8,33.8,100,30.12,4.0,NW,4.6,-,N/A,,Overcast,310,2012-12-05 07:35:00
12:55 AM,33.8,33.8,100,30.12,5.0,NW,4.6,-,N/A,,Overcast,310,2012-12-05 07:55:00
1:15 AM,33.8,33.8,100,30.11,7.0,NW,5.8,-,N/A,,Overcast,310,2012-12-05 08:15:00
1:35 AM,33.8,33.8,100,30.10,10.0,NW,5.8,-,N/A,,Overcast,310,2012-12-05 08:35:00
1:55 AM,33.8,33.8,100,30.09,10.0,NW,5.8,-,N/A,,Overcast,320,2012-12-05 08:55:00
2:15 AM,33.8,33.8,100,30.09,5.0,NNW,4.6,-,N/A,,Overcast,330,2012-12-05 09:15:00
2:35 AM,33.8,33.8,100,30.09,5.0,NW,5.8,-,N/A,,Overcast,310,2012-12-05 09:35:00
2:55 AM,33.8,33.8,100,30.09,1.5,NNW,5.8,-,N/A,,Overcast,330,2012-12-05 09:55:00
3:15 AM,33.8,33.8,100,30.08,1.2,NW,3.5,-,N/A,,Light Drizzle,320,2012-12-05 10:15:00
3:35 AM,33.8,33.8,100,30.07,2.5,North,3.5,-,N/A,,Overcast,360,2012-12-05 10:35:00
3:55 AM,33.8,33.8,100,30.07,2.0,Calm,Calm,-,N/A,,Overcast,0,2012-12-05 10:55:00
4:15 AM,33.8,33.8,100,30.06,2.0,Calm,Calm,-,N/A,,Overcast,0,2012-12-05 11:15:00
4:35 AM,33.8,33.8,100,30.05,3.0,NNW,3.5,-,N/A,,Drizzle,340,2012-12-05 11:35:00
4:55 AM,33.8,33.8,100,30.04,3.0,NW,3.5,-,N/A,,Overcast,310,2012-12-05 11:55:00
5:15 AM,33.8,33.8,100,30.04,2.5,Calm,Calm,-,N/A,,Overcast,0,2012-12-05 12:15:00
5:35 AM,33.8,33.8,100,30.04,4.0,Calm,Calm,-,N/A,,Overcast,0,2012-12-05 12:35:00
5:55 AM,33.8,33.8,100,30.04,4.0,Calm,Calm,-,N/A,,Overcast,0,2012-12-05 12:55:00
7:47 AM,35.6,35.6,100,30.04,7.0,Calm,Calm,-,N/A,Rain,Light Rain,0,2012-12-05 14:47:00
8:45 AM,35.6,35.6,100,30.05,7.0,Calm,Calm,-,N/A,,Overcast,0,2012-12-05 15:45:00
9:47 AM,35.6,35.6,100,30.06,7.0,Calm,Calm,-,N/A,,Overcast,0,2012-12-05 16:47:00
10:25 AM,35.6,35.6,100,30.07,3.0,Calm,Calm,-,N/A,,Overcast,0,2012-12-05 17:25:00
10:47 AM,37.4,37.4,100,30.07,2.0,Calm,Calm,-,N/A,,Overcast,0,2012-12-05 17:47:00
11:50 AM,39.2,39.2,100,30.05,7.0,SE,5.8,-,N/A,,Mostly Cloudy,140,2012-12-05 18:50:00
12:17 PM,42.8,41.0,93,30.04,7.0,ESE,4.6,-,N/A,,Mostly Cloudy,110,2012-12-05 19:17:00
12:50 PM,44.6,41.0,87,30.03,7.0,Calm,Calm,-,N/A,,Mostly Cloudy,0,2012-12-05 19:50:00
1:47 PM,46.4,41.0,81,30.03,10.0,Calm,Calm,-,N/A,,Scattered Clouds,0,2012-12-05 20:47:00
2:47 PM,48.2,33.8,58,30.02,10.0,Calm,Calm,-,N/A,,Scattered Clouds,0,2012-12-05 21:47:00
3:50 PM,46.4,33.8,62,30.03,10.0,WNW,8.1,-,N/A,,Scattered Clouds,290,2012-12-05 22:50:00
4:55 PM,44.6,30.2,57,30.04,10.0,West,6.9,-,N/A,,Scattered Clouds,260,2012-12-05 23:55:00
5:47 PM,39.2,33.8,81,30.04,10.0,NNW,10.4,-,N/A,,Partly Cloudy,340,2012-12-06 00:47:00
6:47 PM,35.6,33.8,93,30.06,10.0,NW,11.5,-,N/A,,Clear,310,2012-12-06 01:47:00
7:47 PM,33.8,32.0,93,30.06,10.0,WNW,6.9,-,N/A,,Clear,290,2012-12-06 02:47:00
8:47 PM,33.8,32.0,93,30.06,10.0,NNW,10.4,-,N/A,,Clear,330,2012-12-06 03:47:00
10:15 PM,32.0,32.0,100,30.08,10.0,NNW,11.5,-,N/A,,Clear,340,2012-12-06 05:15:00
10:35 PM,32.0,30.2,93,30.09,10.0,North,11.5,-,N/A,,Clear,360,2012-12-06 05:35:00
10:47 PM,33.8,30.2,87,30.09,10.0,NNW,9.2,-,N/A,,Clear,340,2012-12-06 05:47:00
10:55 PM,32.0,30.2,93,30.09,10.0,North,9.2,-,N/A,,Clear,360,2012-12-06 05:55:00
11:15 PM,32.0,30.2,93,30.09,10.0,NW,8.1,-,N/A,,Clear,320,2012-12-06 06:15:00
11:35 PM,32.0,30.2,93,30.09,10.0,NNW,11.5,-,N/A,,Clear,330,2012-12-06 06:35:00
11:55 PM,32.0,28.4,87,30.09,10.0,NW,10.4,-,N/A,,Clear,320,2012-12-06 06:55:00